Location: Springville
(37.3745°N, 89.2676°W)
Time: 00:29:36
(UTC+00:00)

Helios 1A Rocket - Pass Details

Date: 29 October 2020
Orbit: 563 x 586 km, 98.3° (Epoch: 03 December)

Event Time Altitude Azimuth Distance (km) Brightness Sun altitude
Rises 23:35:43 0° 134° (SE) 2,795 6.1 -7.4°
Reaches altitude 10° 23:38:13 10° 119° (ESE) 1,896 5.1 -7.9°
Maximum altitude 23:41:24 22° 69° (ENE) 1,288 4.1 -8.5°
Drops below altitude 10° 23:44:34 10° 18° (NNE) 1,896 5.3 -9.1°
Sets 23:47:05 0° 3° (N) 2,795 6.3 -9.6°
